星链-1890 (STARLINK-1890 )

导读 | 豆包AI

STARLINK-1890是美国太空探索技术公司(SpaceX)星链星座计划下的一颗低轨通信卫星,于2020年11月25日发射入轨,属于星链首批组网卫星之一。它采用平板设计,配备太阳电池阵与氪工质霍尔推进器,依托Ku/Ka波段提供通信服务,旨在为全球偏远地区提供低延迟高速宽带互联网接入,是星链全球组网进程中的重要组成单元。

基本信息
目录编号:
47173
目录名称:
STARLINK-1890
国际标识:
2020-088BD
轨道中心:
EARTH
卫星名称:
星链-1890
卫星全名:
星链-1890 (STARLINK-1890 )
卫星状态:
已陨落 最后检测时间 2025-06-30
发射日期:
2020-11-25 UTC
国别 :
美国 (US)
星等 :
--
轨道信息
数据来源 国际轨道数据
星历时间: 2025-06-30T11:16:49+0800
轨道信息已过期257天
半长轴: 6528.264km
偏心率: 0.0007382
轨道倾角: 53.008°
近地点辐角 354.546°
升交点赤经 270.820°
平近点角 76.620°
近地点: 145.309km
远地点: 154.949km
周期: 87.490分钟
每日圈数: 16.459106
详细信息
固有亮度:
5
最大亮度:
2.5
卫星平台:
Starlink V1.0
覆盖范围:
全球
运营商:
太空探索技术公司
运营商所在国:
美国
制造商(研发单位):
太空探索技术公司
制造商所在国:
美国
使用方式:
暂无
卫星简介
星链(Starlink)计划是由太空探索技术公司(SpaceX)提出的一个巨型低轨卫星互联网星座项目,计划在2019年至2024年间在太空搭建由约1.2万颗卫星组成的“星链”网络,其中1584颗将部署在地球上空550千米处的近地轨道,并从2020年开始工作。该卫星仍在工作。